Location: The Saddle
(36.8333°N, 80.3417°W)
Time: 15:23:42
(UTC-05:00)

A-11 Canister half - Pass Details

Date: 10 December 2023
Orbit: 1526 x 1682 km, 47.3° (Epoch: 01 March)

Event Time Altitude Azimuth Distance (km) Brightness Sun altitude
Rises 21:19:04 0° 289° (WNW) 4,935 12.3 -50.0°
Reaches altitude 10° 21:22:27 10° 295° (WNW) 3,944 11.6 -50.6°
Enters shadow 21:27:33 31° 314° (NW) 2,642 10.3 -51.6°
Maximum altitude 21:32:10 48° 8° (N) 2,088 - -52.6°
Drops below altitude 10° 21:41:41 10° 81° (E) 3,867 - -54.4°
Sets 21:44:58 0° 87° (E) 4,831 - -55.1°
